www.pogodaiklimat.ru

Погода и климат >> Архив погоды >> Россия >> Калининградская область >> Советск


ПОГОДА в Советске

  • Прогноз погоды в Советске
  • Монитор погоды в Советске

АРХИВ ПОГОДЫ в Советске

Время (UTC), дата Ветер
(напр.,м/с)
 
Видим.   Явления Облачность Т
(С)
Тd
(С)
f
(%)
Тe
(С)
Тes
(С)
Комфортность P
(гПа)
Po
(гПа)
Тmin
(С)
Tmax
(С)
R
(мм)
R24
(мм)
S
(см)
09 12.02 СЗ 5-9
{10}
20 км 8/8 600 м
[Sc]
+1.1 -4.3 67 -4 -4 1011.9 1007.2
12 12.02 СЗ 6-11
{11}
20 км 4/4 600 м
[Sc]
+3.2 -5.8 52 -2 -1 1014.9 1010.2
15 12.02 СЗ 5-8
{11}
20 км 3/3 600 м
[Sc]
+1.5 -6.2 57 -4 -4 1018.4 1013.6 0.0
18 12.02 СЗ 4-6
{9}
20 км 3/3 600 м
[Sc]
+0.5 -5.9 62 -4 -4 1021.0 1016.2 +3.2
21 12.02 З 3-5
{7}
20 км ясно -0.7 -7.2 61 -5 -5 1022.1 1017.3
00 13.02 ЮЗ 3-4
{6}
20 км ясно -1.8 -7.8 64 -6 -6 1022.3 1017.5
03 13.02 ЮЗ 3-4
{5}
20 км 10/10 600 м
[Sc]
-1.7 -7.5 65 -6 -6 1020.6 1015.8 -2.2
06 13.02 ЮЗ 4-6
{7}
20 км 10/10 600 м
[Sc]
+0.2 -5.1 68 -5 -5 1018.1 1013.3 -2.2 1
09 13.02 ЮЗ 5-9
{10}
10 км слаб. ливневой снег 10/10 300 м
[Cb cap]
+0.9 -3.3 73 -5 -5 1014.7 1009.9
12 13.02 З 6-10
{13}
20 км {ливн. осадки} 10/10 600 м
[Sc]
+4.5 -0.7 69 -1 -1 1014.0 1009.3
15 13.02 З 6-11
{14}
20 км 6/6 600 м
[Sc]
+4.6 -1.6 64 -0 -0 1015.8 1011.0 4
18 13.02 З 4-7
{12}
20 км ясно +3.5 -2.7 64 -1 -1 1019.9 1015.2 +4.8 4
21 13.02 З 3-5
{7}
20 км ясно +2.1 -2.6 71 -2 -2 1021.9 1017.2
00 14.02 З 3-5
{7}
20 км ясно +2.4 -2.3 71 -1 -1 1023.3 1018.6
03 14.02 З 3-5
{7}
20 км ясно +1.9 -2.8 71 -2 -2 1024.9 1020.1 +1.9
06 14.02 З 3-5
{6}
20 км ясно +1.4 -3.1 72 -3 -3 1027.5 1022.7 +1.0 1
09 14.02 З 3-4
{8}
20 км 6/0
[Cs]
+3.9 -2.0 65 +1 +2 1029.2 1024.4
12 14.02 З 3-6
{6}
20 км 10/10 600 м
[Sc]
+2.5 -1.8 73 -1 -1 1030.5 1025.7
15 14.02 ЮЗ 2-4
{7}
10 км 10/10 600 м
[Sc]
+2.2 -2.0 74 -1 -1 1030.2 1025.4
18 14.02 З 3-6
{6}
4000 м слаб. ливневой дождь 10/10 300 м
[Cb cap]
+3.4 -0.5 76 -0 -0 1030.0 1025.3 +6.1
21 14.02 З 3-6
{8}
1000 м {ливн. осадки} 10/10 300 м
[Sc]
+3.3 -0.7 75 -0 -0 1029.7 1025.0
00 15.02 З 4-7
{8}
10 км {ливн. осадки} 10/10 600 м
[Sc]
+4.1 -0.1 74 -0 -0 1028.9 1024.2
03 15.02 З 4-9
{10}
10 км 10/10 600 м
[Sc]
+2.9 -1.3 74 -2 -2 1028.3 1023.5 +2.2
06 15.02 З 3-6
{9}
10 км 10/10 600 м
[Sc]
+3.0 -1.6 72 -1 -1 1028.3 1023.6 +2.7 <0.5
09 15.02 З 3-5
{6}
4000 м дымка 10/10 600 м
[Sc]
+3.7 -0.9 72 0 0 1029.2 1024.5
12 15.02 З 4-7
{8}
4000 м дымка 10/10 600 м
[Sc]
+4.1 -0.2 74 -0 -0 1028.3 1023.6
15 15.02 З 4-7
{9}
4000 м дымка 10/10 600 м
[Sc]
+3.9 -0.3 74 -0 -0 1028.4 1023.7
18 15.02 З 4-7
{9}
4000 м слаб. ливневой дождь 10/10 300 м
[Cb cap]
+3.2 -0.9 74 -1 -1 1028.9 1024.2 +4.2 0.5
21 15.02 З 2-8
{10}
4000 м слаб. ливневой дождь 10/10 300 м
[Cb cap]
+2.2 -2.0 74 -1 -1 1028.8 1023.9
00 16.02 З 3-5
{6}
2000 м дымка {ливн. осадки} 10/10 600 м
[Sc]
+2.7 -1.3 75 -1 -1 1028.1 1023.3
03 16.02 ЮЗ 3-5
{8}
4000 м дымка ясно +1.4 -2.7 74 -3 -3 1026.4 1021.6 +1.4 1
06 16.02 ЮЗ 3-5
{5}
4000 м дымка ясно 0.0 -4.1 74 -4 -4 1025.5 1020.7 0.0 0.9
09 16.02 ЮЗ 4-7
{7}
10 км ясно +3.4 -3.0 63 -1 +1 1024.7 1020.0
12 16.02 ЮЗ 4-8
{8}
20 км ясно +8.4 -2.4 47 +6 +8 1022.7 1018.1
15 16.02 Ю 4-5
{8}
20 км ясно +8.6 -1.8 48 +6 +6 1020.3 1015.7
18 16.02 ЮЗ 5-9
{9}
20 км ясно +5.4 -2.9 55 +1 +1 1018.5 1013.8 +9.8
21 16.02 ЮЗ 4-6
{9}
20 км ясно +5.2 -3.3 54 +2 +2 1018.0 1013.2
00 17.02 З 5-9
{11}
20 км ясно +5.1 -2.3 59 +1 +1 1016.9 1012.2
03 17.02 З 4-8
{10}
20 км 10/10 600 м
[Sc]
+4.6 -1.3 66 +1 +1 1018.0 1013.3 +4.5
06 17.02 штиль 0-6
{9}
50 км дымка ?/? +4.6 -0.8 68 +4 +4 1018.4 1013.7 +4.5
09 17.02 З 3-6
{7}
4000 м дымка 10/10 600 м
[Sc]
+4.5 -0.7 69 +1 +1 1020.4 1015.7
12 17.02 З 3-5
{6}
10 км 10/10 600 м
[Sc]
+5.2 -0.2 68 +2 +2 1021.1 1016.4
15 17.02 З 2-4
{5}
4000 м дымка 10/10 600 м
[Sc]
+4.1 -0.5 72 +2 +2 1021.7 1017.0
18 17.02 З 1-2
{5}
10 км 10/10 600 м
[Sc]
+3.5 -0.8 73 +2 +2 1022.5 1017.8 +5.2
21 17.02 З 2-4
{5}
4000 м в посл. час ливневой дождь 10/10 600 м
[Sc]
+3.3 -0.9 74 +1 +1 1022.8 1018.1
00 18.02 СЗ 1-3
{5}
2000 м дымка {ливн. осадки} 10/10 600 м
[Sc]
+2.5 -1.7 74 +1 +1 1023.8 1019.1
03 18.02 С 1-1
{4}
2000 м дымка 10/10 600 м
[Sc]
+2.3 -1.9 74 +1 +1 1023.7 1019.0 +2.2 0.4
06 18.02 Ю 1-1
{3}
4000 м дымка {туман} 9/9 600 м
[Sc]
+2.0 -2.1 74 +1 +1 1023.9 1019.2 +1.9 0.4
09 18.02 Ю 2-4
{4}
10 км 10/10 600 м
[Sc]
+3.1 -1.3 73 0 0 1024.7 1019.9
12 18.02 Ю 3-6
{6}
10 км 10/10 600 м
[Sc]
+3.8 -1.2 70 0 0 1023.7 1019.0
15 18.02 Ю 3-5
{7}
20 км 10/10 600 м
[Sc]
+3.8 -1.4 69 0 0 1021.7 1017.0
18 18.02 Ю 2-3
{7}
20 км ясно +1.9 -2.6 72 -1 -1 1020.4 1015.6 +4.1
21 18.02 Ю 3-5
{5}
20 км ясно +1.5 -3.1 71 -3 -3 1018.8 1014.1
00 19.02 Ю 3-5
{5}
10 км ясно +0.8 -3.5 73 -3 -3 1017.2 1012.5
03 19.02 Ю 3-5
{5}
4000 м дымка ясно +0.8 -3.5 73 -3 -3 1014.3 1009.6 +0.5
06 19.02 Ю 3-5
{5}
4000 м дымка ясно +0.5 -3.9 72 -4 -4 1011.9 1007.2 +0.4

 

Местоположение метеостанции Советск (Калининградская область, Россия): широта 55.08 долгота 21.93 высота над уровнем моря 36 м.

В архиве по умолчанию представлена погода в Советске за последнюю неделю. Архивные данные за месяц целиком и за предыдущие месяцы, начиная с января 2011 года, Вы можете получить, выбрав интересующий диапазон дат из раскрывающегося списка и нажав кнопку "Ввод!".


*Определитесь, кто Вы:
робот инопланетянин человек

Внимание! Время в таблицах - всемирное. Для получения местного времени необходимо прибавить поправку, которая равна 2 ч.

Смотрите также архив погоды в соседних городах и на ближайших метеорологических станциях:

Погода в Шилуте (Литва) (43 км)
Погода в Черняховске (Калининградская область, Россия) (51 км)
Погода в Лаукуве (Литва) (63 км)
Погода в Ниде (Литва) (64 км)
Погода в Рыбачем (Калининградская область, Россия) (70 км)
Погода в Кибартае (Литва) (74 км)
Погода в Расейняе (Литва) (85 км)
Погода в Виштынце (Калининградская область, Россия) (88 км)
Погода в Железнодорожном (Калининградская область, Россия) (89 км)
Погода в Kлайпеде (Литва) (90 км)

Пояснения к столбцам:

Ветер - указаны скорость ветра в м/с - средняя за 10 мин, порывы в срок и между сроками (в фигурных скобках) и направление, откуда дует ветер: С - северный, СВ - северо-восточный, В - восточный, ЮВ - юго-восточный, Ю - южный, ЮЗ - юго-западный, З - западный, СЗ - северо-западный.
Видимость - горизонтальная дальность видимости в метрах или километрах. При видимости от 1 до 10 км при отсутствии осадков обычно наблюдается дымка, при ухудшении видимости до 1 км и менее - туман. В сухую погоду видимость может ухудшаться дымом, пылью или мглою.
Явления - указаны атмосферные явления, наблюдавшиеся в срок или в последний час перед сроком; фигурными скобками обозначены явления, наблюдавшиеся между сроками (за 1-3 часа до срока); квадратными скобками обозначены град или гололедные отложения с указанием их диаметра в мм.
Облачность - указаны через наклонную черту общая и нижняя облачность в баллах и высота нижней границы облаков в метрах; квадратными скобками обозначены формы облаков: Ci - перистые, Cs - перисто-слоистые, Cc - перисто-кучевые, Ac - высококучевые, As - высокослоистые, Sc - слоисто-кучевые, Ns - слоисто-дождевые, Cu - кучевые, Cb - кучево-дождевые. Подробнее классификацию облаков см. в Атласе облаков (PDF).
T - Температура воздуха - температура, измеренная на высоте 2 м над землей.
Td - Температура точки росы - температура, при понижении до которой содержащийся в воздухе водяной пар достигнет насыщения.
f - Относительная влажность воздуха - влажноcть воздуха, измеренная на высоте 2 м над землей.
Te - Эффективная температура - температура, которую ощущает одетый по сезону человек в тени. Характеристика душности погоды. При расчете учитывается влияние влажности воздуха и скорости ветра на теплоощущения человека.
Tes - Эффективная температура на солнце - температура, которую ощущает человек, с поправкой на солнечный нагрев. Характеристика знойности погоды. Зависит от высоты солнца над горизонтом, облачности и скорости ветра. Ночью, в пасмурную погоду, а также при ветре 12 м/с и более поправка равна нулю.
P - Атмосферное давление - приведенное к уровню моря атмосферное давление.
Po - Атмосферное давление - измеренное на уровне метеостанции атмосферное давление.
Tmin - Минимальная температура - минимум температуры воздуха на высоте 2 м над землей.
Tmax - Максимальная температура - максимум температуры воздуха на высоте 2 м над землей.
R - Количество осадков - Количество выпавших осадков за период времени, мм. При наведении курсора мыши на число - период времени, за который выпало указанное количество осадков.
R24 - Количество осадков - Количество выпавших осадков за 24 часа, мм.
S - Снежный покров - Высота снежного покрова, см. При наведении курсора мыши на число - состояние снежного покрова и степень покрытия местности в баллах.